When you browse on this site, cookies collect data to enhance your experience and personalize the content and advertising you see.
Visit our Privacy Policy to learn more. By continuing to use the site, you agree to this use of cookies and data.
  • In Portugal
  • List of Countries
  • For 7 days
  • Water Temperature
  • Weather Map
  • Weather Widgets
  • user-avatar
    Login

    Hourly Weather l'Hospitalet de Llobregat

    Today, 20 August, Tuesday

    Time Temperature Precipitation Wind Pressure Humidity
    00:00 +26°C° 0 mm 5 mps 755 mmHg 65%
    01:00 +26°C° 0 mm 5 mps 755 mmHg 63%
    02:00 +26°C° 0 mm 4 mps 755 mmHg 62%
    03:00 +26°C° 0 mm 4 mps 755 mmHg 61%
    04:00 +26°C° 0 mm 4 mps 755 mmHg 60%
    05:00 +26°C° 0 mm 3 mps 755 mmHg 59%
    06:00 +26°C° 0 mm 3 mps 755 mmHg 58%
    07:00 +27°C° 0 mm 3 mps 756 mmHg 55%
    08:00 +27°C° 0 mm 4 mps 756 mmHg 53%
    09:00 +28°C° 0 mm 4 mps 757 mmHg 51%
    10:00 +28°C° 0 mm 3 mps 757 mmHg 49%
    11:00 +29°C° 0 mm 3 mps 757 mmHg 48%
    12:00 +29°C° 0 mm 2 mps 758 mmHg 47%
    13:00 +29°C° 0 mm 3 mps 757 mmHg 47%
    14:00 +29°C° 0 mm 4 mps 757 mmHg 47%
    15:00 +29°C° 0 mm 5 mps 757 mmHg 48%
    16:00 +29°C° 0 mm 5 mps 757 mmHg 49%
    17:00 +29°C° 0 mm 5 mps 757 mmHg 50%
    18:00 +28°C° 0 mm 6 mps 757 mmHg 51%
    19:00 +27°C° 0 mm 5 mps 758 mmHg 52%
    20:00 +27°C° 0 mm 5 mps 758 mmHg 54%
    21:00 +26°C° 0 mm 5 mps 758 mmHg 56%
    22:00 +26°C° 0 mm 4 mps 758 mmHg 57%
    23:00 +25°C° 0 mm 3 mps 758 mmHg 59%

    Tomorrow, 21 August, Wednesday

    Time Temperature Precipitation Wind Pressure Humidity
    00:00 +25°C° 0 mm 3 mps 758 mmHg 60%
    01:00 +25°C° 0 mm 2 mps 758 mmHg 62%
    02:00 +24°C° 0 mm 2 mps 758 mmHg 64%
    03:00 +24°C° 0 mm 2 mps 758 mmHg 66%
    04:00 +24°C° 0 mm 2 mps 758 mmHg 67%
    05:00 +24°C° 0 mm 2 mps 758 mmHg 67%
    06:00 +24°C° 0 mm 2 mps 758 mmHg 68%
    07:00 +25°C° 0 mm 2 mps 758 mmHg 62%
    08:00 +27°C° 0 mm 3 mps 758 mmHg 57%
    09:00 +28°C° 0 mm 3 mps 758 mmHg 51%
    10:00 +29°C° 0 mm 3 mps 757 mmHg 47%
    11:00 +30°C° 0 mm 4 mps 757 mmHg 44%
    12:00 +32°C° 0 mm 5 mps 757 mmHg 40%
    13:00 +32°C° 0 mm 5 mps 756 mmHg 40%
    14:00 +33°C° 0 mm 5 mps 756 mmHg 40%
    15:00 +33°C° 0 mm 5 mps 756 mmHg 41%
    16:00 +32°C° 0 mm 5 mps 756 mmHg 47%
    17:00 +29°C° 0 mm 4 mps 756 mmHg 53%
    18:00 +28°C° 0 mm 4 mps 756 mmHg 59%
    19:00 +28°C° 0 mm 3 mps 756 mmHg 62%
    20:00 +27°C° 0 mm 2 mps 757 mmHg 65%
    21:00 +26°C° 0 mm 2 mps 757 mmHg 68%
    22:00 +26°C° 0 mm 2 mps 757 mmHg 69%
    23:00 +26°C° 0 mm 2 mps 757 mmHg 70%

    Day after tomorrow, 22 August, Thursday

    Time Temperature Precipitation Wind Pressure Humidity
    00:00 +26°C° 0 mm 2 mps 757 mmHg 71%
    01:00 +26°C° 0 mm 2 mps 757 mmHg 71%
    02:00 +25°C° 0 mm 2 mps 757 mmHg 71%
    03:00 +25°C° 0 mm 2 mps 756 mmHg 72%
    04:00 +25°C° 0 mm 1 mps 757 mmHg 71%
    05:00 +25°C° 0 mm 1 mps 757 mmHg 70%
    06:00 +25°C° 0 mm 1 mps 757 mmHg 70%
    07:00 +26°C° 0 mm 1 mps 757 mmHg 65%
    08:00 +28°C° 0 mm 1 mps 757 mmHg 60%
    09:00 +29°C° 0 mm 1 mps 757 mmHg 55%
    10:00 +30°C° 0 mm 2 mps 757 mmHg 52%
    11:00 +31°C° 0 mm 3 mps 757 mmHg 50%
    12:00 +31°C° 0 mm 3 mps 757 mmHg 47%
    13:00 +32°C° 0 mm 4 mps 757 mmHg 48%
    14:00 +32°C° 0 mm 4 mps 757 mmHg 48%
    15:00 +33°C° 0 mm 4 mps 756 mmHg 49%
    16:00 +32°C° 0 mm 4 mps 756 mmHg 52%
    17:00 +30°C° 0 mm 3 mps 756 mmHg 55%
    18:00 +29°C° 0 mm 3 mps 756 mmHg 58%
    19:00 +28°C° 0 mm 3 mps 756 mmHg 60%
    20:00 +28°C° 0 mm 3 mps 757 mmHg 62%
    21:00 +27°C° 0 mm 3 mps 757 mmHg 64%
    22:00 +27°C° 0 mm 3 mps 757 mmHg 63%
    23:00 +27°C° 0 mm 3 mps 757 mmHg 62%

    23 August, Friday

    Time Temperature Precipitation Wind Pressure Humidity
    00:00 +26°C° 0 mm 3 mps 757 mmHg 61%
    01:00 +26°C° 0 mm 2 mps 757 mmHg 59%
    02:00 +26°C° 0 mm 2 mps 757 mmHg 57%
    03:00 +26°C° 0 mm 2 mps 756 mmHg 56%
    04:00 +26°C° 0 mm 2 mps 756 mmHg 54%
    05:00 +26°C° 0 mm 2 mps 756 mmHg 52%
    06:00 +26°C° 0 mm 1 mps 756 mmHg 50%
    07:00 +28°C° 0 mm 1 mps 757 mmHg 45%
    08:00 +29°C° 0 mm 1 mps 757 mmHg 40%
    09:00 +31°C° 0 mm 1 mps 757 mmHg 35%
    10:00 +32°C° 0 mm 2 mps 757 mmHg 34%
    11:00 +32°C° 0 mm 2 mps 757 mmHg 33%
    12:00 +34°C° 0 mm 3 mps 756 mmHg 32%
    13:00 +34°C° 0 mm 3 mps 756 mmHg 32%
    14:00 +34°C° 0 mm 3 mps 756 mmHg 33%
    15:00 +34°C° 0 mm 3 mps 755 mmHg 34%
    16:00 +33°C° 0 mm 3 mps 755 mmHg 37%
    17:00 +31°C° 0 mm 2 mps 755 mmHg 40%
    18:00 +30°C° 0 mm 2 mps 755 mmHg 43%
    19:00 +29°C° 0 mm 1 mps 755 mmHg 46%
    20:00 +28°C° 0 mm 1 mps 755 mmHg 49%
    21:00 +26°C° 0 mm 0 mps 756 mmHg 52%
    22:00 +25°C° 0 mm 0 mps 756 mmHg 52%
    23:00 +25°C° 0 mm 0 mps 756 mmHg 52%

    24 August, Saturday

    Time Temperature Precipitation Wind Pressure Humidity
    00:00 +27°C° 0 mm 1 mps 756 mmHg 52%
    01:00 +25°C° 0 mm 0 mps 756 mmHg 52%
    02:00 +24°C° 0 mm 0 mps 755 mmHg 53%
    03:00 +24°C° 0 mm 0 mps 755 mmHg 53%
    04:00 +24°C° 0 mm 0 mps 755 mmHg 53%
    05:00 +24°C° 0 mm 0 mps 755 mmHg 53%
    06:00 +24°C° 0 mm 0 mps 755 mmHg 53%
    07:00 +28°C° 0 mm 1 mps 756 mmHg 48%
    08:00 +29°C° 0 mm 1 mps 756 mmHg 44%
    09:00 +31°C° 0 mm 1 mps 756 mmHg 39%
    10:00 +31°C° 0 mm 2 mps 756 mmHg 39%
    11:00 +32°C° 0 mm 2 mps 756 mmHg 38%
    12:00 +33°C° 0 mm 3 mps 755 mmHg 38%
    13:00 +33°C° 0 mm 3 mps 755 mmHg 40%
    14:00 +33°C° 0 mm 3 mps 755 mmHg 41%
    15:00 +33°C° 0 mm 3 mps 755 mmHg 43%
    16:00 +31°C° 0 mm 3 mps 755 mmHg 46%
    17:00 +30°C° 0 mm 2 mps 755 mmHg 49%
    18:00 +29°C° 0 mm 2 mps 754 mmHg 51%
    19:00 +29°C° 0 mm 1 mps 755 mmHg 54%
    20:00 +28°C° 0 mm 1 mps 755 mmHg 57%
    21:00 +27°C° 0 mm 1 mps 755 mmHg 60%
    22:00 +27°C° 0 mm 1 mps 755 mmHg 61%
    23:00 +27°C° 0 mm 1 mps 755 mmHg 62%

    25 August, Sunday

    Time Temperature Precipitation Wind Pressure Humidity
    00:00 +26°C° 0 mm 2 mps 755 mmHg 63%
    01:00 +26°C° 0 mm 2 mps 755 mmHg 64%
    02:00 +26°C° 0 mm 1 mps 754 mmHg 65%
    03:00 +26°C° 0 mm 1 mps 754 mmHg 65%
    04:00 +26°C° 0 mm 1 mps 754 mmHg 64%
    05:00 +26°C° 0 mm 1 mps 754 mmHg 64%
    06:00 +26°C° 0 mm 1 mps 754 mmHg 63%
    07:00 +27°C° 0 mm 1 mps 755 mmHg 56%
    08:00 +29°C° 0 mm 2 mps 755 mmHg 49%
    09:00 +30°C° 0 mm 2 mps 755 mmHg 43%
    10:00 +31°C° 0 mm 2 mps 755 mmHg 40%
    11:00 +32°C° 0 mm 2 mps 755 mmHg 38%
    12:00 +33°C° 0 mm 3 mps 754 mmHg 35%
    13:00 +33°C° 0 mm 3 mps 754 mmHg 35%
    14:00 +33°C° 0 mm 3 mps 754 mmHg 36%
    15:00 +33°C° 0 mm 3 mps 754 mmHg 36%
    16:00 +31°C° 0 mm 3 mps 754 mmHg 40%
    17:00 +30°C° 0 mm 2 mps 754 mmHg 44%
    18:00 +29°C° 0 mm 2 mps 754 mmHg 48%
    19:00 +29°C° 0 mm 2 mps 754 mmHg 51%
    20:00 +28°C° 0 mm 1 mps 755 mmHg 55%
    21:00 +28°C° 0 mm 1 mps 755 mmHg 58%
    22:00 +28°C° 0 mm 1 mps 755 mmHg 59%
    23:00 +27°C° 0 mm 1 mps 755 mmHg 59%
    Show more